Location: Madrid
(40.4000°N, 3.6830°W)
Time: 13:56:46
(UTC+01:00)

ISS - Pass Details

Date: 14 December 2017
Orbit: 402 x 406 km, 51.6° (Epoch: 16 December)

Event Time Altitude Azimuth Distance (km) Brightness Sun altitude
Rises 20:21:26 0° 294° (WNW) 2,326 0.9 -28.1°
Reaches altitude 10° 20:23:51 10° 278° (W) 1,461 -0.1 -28.6°
Enters shadow 20:25:09 17° 258° (WSW) 1,114 -0.8 -28.8°
